Find Starlink 5754

NORAD ID: 55579 Int'l Des: 2023-020 Owner: SPXS Country: US Constellation: starlink operational
LEOCIRCULAR

实时位置

正在加载3D地球...

关于 Starlink 5754

正在加载描述...

即将过境

Passes for default location (London). Set your location on the main map for personalized predictions.

高度历史

Loading altitude history...

两行轨道根数

1 55579U 23020L 26126.16693572 .00001145 00000-0 51132-4 0 9991
2 55579 43.0058 40.5576 0001208 261.0231 99.0484 15.27581078177706
Epoch: May 6, 2026 • Age: 11 hours

当前状态

高度 493.9 km
速度 7.62 km/s
星下点 -38.97°S, 106.53°W
发射日期 Feb 12, 2023
运行时间 3.2 years
类型 internet

技术详情

分类 Payload
质量 305.00 kg
干质量 290.00 kg
总质量 305.00 kg
长度 0.20 m
直径 2.80 m
跨度 9.00 m
形状 Box + pan
制造商 SPXS
平台类型 Starlink
阶段状态 In Orbit
所有者/国家 SPXS/US

Most Searched